Weather History for Windsor Locks, CT

Change the Weather History Date:

Monday, November 28, 2011

  Actual Average Record
Temperature  
Mean Temperature 58 °F 38 °F  
Max Temperature 65 °F 47 °F 71 °F (1990)
Min Temperature 51 °F 30 °F 12 °F (2002)
Degree Days  
Heating Degree Days 7 27  
Month to date heating degree days 530 623  
Since 1 July heating degree days 939 1152  
Cooling Degree Days 0 0  
Month to date cooling degree days 0 0  
Year to date cooling degree days 935 756  
Growing Degree Days 8 (Base 50)    
Moisture  
Dew Point 50 °F    
Average Humidity 73    
Maximum Humidity 89    
Minimum Humidity 56    
Precipitation  
Precipitation 0.00 in 0.14 in 3.34 in (1937)
Month to date precipitation 2.86 3.63  
Year to date precipitation 63.28 42.15  
Snow  
Snow 0.00 in 0.10 in 1.30 in (1994)
Month to date snowfall 0.0 1.7  
Since 1 July snowfall 12.3 1.7  
Since 1 September snowfall 12.3 1.7  
Snow Depth -    
Sea Level Pressure  
Sea Level Pressure 30.10 in    
Wind  
Wind Speed 9 mph (South)    
Max Wind Speed 16 mph    
Max Gust Speed 22 mph    
Visibility 10 miles    
Events      
T = Trace of Precipitation, MM = Missing Value Source: NWS Daily Summary

Daily Weather History Graph

Daily Weather History Graph

Search for Another Location

Airport:

Trip Planner

Search our weather history database for the weather conditions in past years. The results will help you decide how hot, cold, wet, or windy it might be!

Date:

Astronomy

Nov. 28, 2011 Rise Set
Actual Time 6:55 AM EST 4:21 PM EST
Civil Twilight 6:24 AM EST 4:52 PM EST
Nautical Twilight 5:50 AM EST 5:26 PM EST
Astronomical Twilight 5:16 AM EST 6:00 PM EST
Moon 10:02 AM EST (11/28) 8:05 PM EST (11/28)
Length of Visible Light 10h 27m
Length of Day
9h 26m
Waxing Crescent, 15% of the Moon is Illuminated
Nov 28
Waxing Crescent
Dec 2
First Quarter
Dec 10
Full
Dec 17
Last Quarter
Dec 24
New

Hourly Weather History & Observations

Time (EST) Temp. Dew Point Humidity Pressure Visibility Wind Dir Wind Speed Gust Speed Precip Events Conditions
12:51 AM 54.0 °F 48.9 °F 83% 30.09 in 10.0 mi SSW 13.8 mph - N/A   Mostly Cloudy
1:51 AM 53.1 °F 50.0 °F 89% 30.12 in 10.0 mi South 10.4 mph - N/A   Mostly Cloudy
2:51 AM 53.1 °F 50.0 °F 89% 30.10 in 10.0 mi South 11.5 mph - N/A   Mostly Cloudy
3:51 AM 53.1 °F 48.9 °F 86% 30.10 in 10.0 mi South 9.2 mph - N/A   Mostly Cloudy
4:51 AM 53.1 °F 48.9 °F 86% 30.10 in 10.0 mi South 10.4 mph - N/A   Overcast
5:51 AM 53.1 °F 48.9 °F 86% 30.10 in 10.0 mi South 11.5 mph - N/A   Overcast
6:51 AM 54.0 °F 48.9 °F 83% 30.11 in 10.0 mi South 10.4 mph - N/A   Mostly Cloudy
7:51 AM 54.0 °F 50.0 °F 86% 30.13 in 10.0 mi South 9.2 mph - N/A   Mostly Cloudy
8:51 AM 55.9 °F 50.0 °F 80% 30.13 in 10.0 mi South 10.4 mph - N/A   Mostly Cloudy
9:51 AM 57.9 °F 50.0 °F 75% 30.14 in 10.0 mi SSW 8.1 mph - N/A   Mostly Cloudy
10:51 AM 60.8 °F 51.8 °F 72% 30.12 in 10.0 mi South 10.4 mph - N/A   Clear
11:51 AM 63.0 °F 50.0 °F 63% 30.10 in 10.0 mi SSW 10.4 mph - N/A   Mostly Cloudy
12:51 PM 64.0 °F 48.9 °F 58% 30.09 in 10.0 mi SSW 15.0 mph - N/A   Mostly Cloudy
1:51 PM 64.0 °F 48.0 °F 56% 30.08 in 10.0 mi SSW 12.7 mph - N/A   Mostly Cloudy
2:51 PM 64.0 °F 48.9 °F 58% 30.08 in 10.0 mi South 10.4 mph - N/A   Mostly Cloudy
3:51 PM 62.1 °F 48.9 °F 62% 30.08 in 10.0 mi South 6.9 mph - N/A   Mostly Cloudy
4:51 PM 59.0 °F 50.0 °F 72% 30.09 in 10.0 mi South 4.6 mph - N/A   Mostly Cloudy
5:51 PM 59.0 °F 50.0 °F 72% 30.10 in 10.0 mi South 6.9 mph - N/A   Mostly Cloudy
6:51 PM 59.0 °F 50.0 °F 72% 30.11 in 10.0 mi SSE 3.5 mph - N/A   Scattered Clouds
7:51 PM 55.0 °F 50.0 °F 83% 30.11 in 10.0 mi SSE 5.8 mph - N/A   Scattered Clouds
8:51 PM 54.0 °F 48.9 °F 83% 30.11 in 10.0 mi SSE 4.6 mph - N/A   Partly Cloudy
9:51 PM 54.0 °F 50.0 °F 86% 30.12 in 10.0 mi South 5.8 mph - N/A   Mostly Cloudy
10:51 PM 54.0 °F 50.0 °F 86% 30.11 in 10.0 mi South 5.8 mph - N/A   Mostly Cloudy
11:51 PM 53.1 °F 50.0 °F 89% 30.10 in 10.0 mi Calm Calm - N/A   Mostly Cloudy